VAF138 LIRN-LFBT

Flight info

Callsign VAF138
Flight time 1h 49m
Altitude 38000
Route EDOPA DCT VEXUV DCT PNZ DCT RIFFI DCT ELVIN DCT NEMBO DCT BEGUD DCT MIRSA DCT OMARD DCT STP/N0433F390 DCT PADKO/N0430F380 DCT FJR DCT GAI DCT AGN
Aircraft A20N/M-SDE2E3FGHIRWXY/LB1

Departure

Time 2026-04-18 06:47
Airport Naples International Airport (LIRN)

Arrival

Time 2026-04-18 08:37
Airport Tarbes-Lourdes-Pyrénées Airport (LFBT)
Time Latitude Longitude Altitude Speed Heading
2026-04-18 06:38 40.88008 14.28381 293 ft 0 kts 333°
2026-04-18 06:42 40.88018 14.28375 293 ft 3 kts 333°
2026-04-18 06:42 40.88050 14.28359 291 ft 3 kts 24°
2026-04-18 06:43 40.88054 14.28417 291 ft 7 kts 94°
2026-04-18 06:43 40.88048 14.28489 291 ft 8 kts 99°
2026-04-18 06:43 40.88001 14.28523 293 ft 11 kts 204°
2026-04-18 06:43 40.87941 14.28437 296 ft 13 kts 262°
2026-04-18 06:44 40.87947 14.28308 294 ft 15 kts 278°
2026-04-18 06:44 40.87964 14.28157 291 ft 16 kts 273°
2026-04-18 06:44 40.87905 14.28033 294 ft 15 kts 229°
2026-04-18 06:44 40.87853 14.27924 296 ft 13 kts 269°
2026-04-18 06:45 40.87918 14.27826 295 ft 15 kts 324°
2026-04-18 06:45 40.88003 14.27809 294 ft 0 kts 53°
2026-04-18 06:45 40.88005 14.27812 294 ft 0 kts 53°
2026-04-18 06:45 40.88005 14.27813 294 ft 0 kts 53°
2026-04-18 06:46 40.88006 14.27815 293 ft 1 kts 53°
2026-04-18 06:46 40.88131 14.28076 287 ft 74 kts 58°
2026-04-18 06:47 40.88546 14.28953 263 ft 145 kts 58°
2026-04-18 06:47 40.89139 14.30206 625 ft 168 kts 57°
2026-04-18 06:47 40.89741 14.31476 1470 ft 164 kts 56°
2026-04-18 06:47 40.90316 14.32722 2296 ft 161 kts 56°
2026-04-18 06:48 40.90927 14.34034 2815 ft 176 kts 55°
2026-04-18 06:48 40.91609 14.35472 3281 ft 196 kts 55°
2026-04-18 06:48 40.92419 14.37023 3811 ft 213 kts 43°
2026-04-18 06:48 40.93765 14.37899 4345 ft 231 kts
2026-04-18 06:49 40.95379 14.37386 4916 ft 255 kts 330°
2026-04-18 06:49 40.96649 14.35717 5740 ft 269 kts 303°
2026-04-18 06:49 40.97194 14.33357 6687 ft 279 kts 275°
2026-04-18 06:49 40.97113 14.30801 7644 ft 282 kts 270°
2026-04-18 06:50 40.97004 14.28209 8522 ft 286 kts 271°
2026-04-18 06:50 40.96902 14.25605 9370 ft 290 kts 271°
2026-04-18 06:50 40.96798 14.22937 10232 ft 294 kts 271°
2026-04-18 06:50 40.96694 14.20204 10893 ft 304 kts 271°
2026-04-18 06:51 40.96586 14.17378 11570 ft 313 kts 271°
2026-04-18 06:51 40.96474 14.14498 12338 ft 317 kts 271°
2026-04-18 06:51 40.96360 14.11618 13125 ft 321 kts 271°
2026-04-18 06:51 40.96248 14.08807 13852 ft 324 kts 271°
2026-04-18 06:52 40.96128 14.05809 14623 ft 328 kts 271°
2026-04-18 06:52 40.96006 14.02793 15383 ft 331 kts 271°
2026-04-18 06:52 40.95882 13.99743 16134 ft 334 kts 270°
2026-04-18 06:52 40.95756 13.96666 16830 ft 338 kts 270°
2026-04-18 06:53 40.95628 13.93562 17551 ft 341 kts 270°
2026-04-18 06:53 40.95500 13.90453 18211 ft 344 kts 270°
2026-04-18 06:53 40.95367 13.87292 18875 ft 347 kts 270°
2026-04-18 06:53 40.95234 13.84119 19527 ft 351 kts 270°
2026-04-18 06:54 40.95097 13.80869 20172 ft 354 kts 270°
2026-04-18 06:54 40.94959 13.77623 20807 ft 357 kts 270°
2026-04-18 06:54 40.94819 13.74359 21445 ft 360 kts 270°
2026-04-18 06:54 40.94677 13.71066 22053 ft 363 kts 270°
2026-04-18 06:55 40.94533 13.67735 22669 ft 366 kts 270°
2026-04-18 06:55 40.94386 13.64389 23278 ft 369 kts 270°
2026-04-18 06:55 40.94236 13.60977 23875 ft 372 kts 270°
2026-04-18 06:55 40.94084 13.57564 24456 ft 375 kts 270°
2026-04-18 06:56 40.93931 13.54122 25023 ft 378 kts 270°
2026-04-18 06:56 40.93777 13.50656 25573 ft 381 kts 270°
2026-04-18 06:56 40.93618 13.47135 26119 ft 384 kts 270°
2026-04-18 06:56 40.93459 13.43617 26639 ft 388 kts 270°
2026-04-18 06:57 40.93296 13.40066 27153 ft 390 kts 270°
2026-04-18 06:57 40.92963 13.32873 28133 ft 396 kts 270°
2026-04-18 06:57 40.92793 13.29250 28583 ft 398 kts 270°
2026-04-18 06:58 40.92622 13.25602 29024 ft 401 kts 270°
2026-04-18 06:58 40.92448 13.21928 29440 ft 403 kts 270°
2026-04-18 06:58 40.92270 13.18200 29843 ft 406 kts 270°
2026-04-18 06:58 40.92094 13.14521 30213 ft 408 kts 270°
2026-04-18 06:59 40.91913 13.10779 30569 ft 410 kts 270°
2026-04-18 06:59 40.91734 13.07018 30923 ft 412 kts 271°
2026-04-18 06:59 40.91791 13.03257 31250 ft 410 kts 279°
2026-04-18 06:59 40.92261 12.99544 31586 ft 408 kts 287°
2026-04-18 07:00 40.93108 12.96025 31899 ft 406 kts 295°
2026-04-18 07:00 40.94327 12.92677 32198 ft 404 kts 303°
2026-04-18 07:00 40.95894 12.89580 32484 ft 403 kts 311°
2026-04-18 07:00 40.97743 12.86806 32779 ft 403 kts 316°
2026-04-18 07:01 40.99688 12.84157 33103 ft 403 kts 317°
2026-04-18 07:01 41.01632 12.81543 33471 ft 402 kts 317°
2026-04-18 07:01 41.03593 12.78904 33839 ft 401 kts 317°
2026-04-18 07:01 41.05547 12.76264 34181 ft 400 kts 316°
2026-04-18 07:02 41.07471 12.73658 34506 ft 400 kts 316°
2026-04-18 07:02 41.09417 12.71017 34793 ft 399 kts 316°
2026-04-18 07:02 41.11333 12.68411 35072 ft 399 kts 316°
2026-04-18 07:02 41.13275 12.65768 35339 ft 398 kts 316°
2026-04-18 07:03 41.15212 12.63127 35599 ft 398 kts 316°
2026-04-18 07:03 41.17112 12.60534 35861 ft 397 kts 316°
2026-04-18 07:03 41.19027 12.57917 36118 ft 396 kts 316°
2026-04-18 07:03 41.20945 12.55296 36348 ft 396 kts 316°
2026-04-18 07:04 41.22866 12.52670 36585 ft 396 kts 316°
2026-04-18 07:04 41.24768 12.50069 36808 ft 397 kts 316°
2026-04-18 07:04 41.26696 12.47432 37011 ft 398 kts 316°
2026-04-18 07:04 41.28635 12.44776 37208 ft 400 kts 316°
2026-04-18 07:05 41.30548 12.42151 37416 ft 401 kts 316°
2026-04-18 07:05 41.32481 12.39496 37627 ft 401 kts 316°
2026-04-18 07:05 41.34427 12.36820 37816 ft 402 kts 316°
2026-04-18 07:05 41.36383 12.34126 37997 ft 403 kts 316°
2026-04-18 07:06 41.40299 12.28731 38040 ft 410 kts 316°
2026-04-18 07:06 41.44288 12.23223 38043 ft 418 kts 316°
2026-04-18 07:07 41.48302 12.17640 38046 ft 425 kts 314°
2026-04-18 07:07 41.52126 12.11537 38052 ft 432 kts 310°
2026-04-18 07:08 41.55838 12.05221 38048 ft 435 kts 310°
2026-04-18 07:08 41.59548 11.98882 38047 ft 435 kts 310°
2026-04-18 07:09 41.63262 11.92531 38049 ft 435 kts 310°
2026-04-18 07:09 41.66976 11.86170 38054 ft 435 kts 310°
2026-04-18 07:10 41.70695 11.79786 38053 ft 435 kts 310°
2026-04-18 07:10 41.74387 11.73435 38054 ft 434 kts 310°
2026-04-18 07:11 41.78084 11.67061 38048 ft 434 kts 310°
2026-04-18 07:11 41.81765 11.60703 38045 ft 435 kts 310°
2026-04-18 07:12 41.85448 11.54328 38052 ft 435 kts 310°
2026-04-18 07:12 41.89153 11.47902 38053 ft 435 kts 310°
2026-04-18 07:13 41.92831 11.41509 38062 ft 435 kts 310°
2026-04-18 07:13 41.96529 11.35068 38062 ft 435 kts 310°
2026-04-18 07:14 42.00195 11.28665 38056 ft 435 kts 310°
2026-04-18 07:14 42.03877 11.22225 38053 ft 435 kts 310°
2026-04-18 07:15 42.07556 11.15775 38056 ft 436 kts 310°
2026-04-18 07:15 42.11231 11.09319 38059 ft 435 kts 309°
2026-04-18 07:16 42.14893 11.02870 38057 ft 435 kts 309°
2026-04-18 07:16 42.18556 10.96408 38054 ft 435 kts 309°
2026-04-18 07:17 42.22230 10.89906 38057 ft 436 kts 310°
2026-04-18 07:17 42.25882 10.83431 38062 ft 436 kts 309°
2026-04-18 07:18 42.29540 10.76926 38065 ft 436 kts 309°
2026-04-18 07:18 42.33130 10.70363 38071 ft 437 kts 309°
2026-04-18 07:19 42.36733 10.63727 38070 ft 436 kts 309°
2026-04-18 07:19 42.40312 10.57126 38074 ft 436 kts 309°
2026-04-18 07:20 42.43863 10.50569 38077 ft 436 kts 309°
2026-04-18 07:20 42.47439 10.43951 38087 ft 436 kts 309°
2026-04-18 07:21 42.51008 10.37332 38083 ft 436 kts 309°
2026-04-18 07:21 42.54574 10.30705 38086 ft 436 kts 308°
2026-04-18 07:22 42.58153 10.24040 38086 ft 436 kts 308°
2026-04-18 07:22 42.61706 10.17409 38089 ft 436 kts 308°
2026-04-18 07:23 42.65259 10.10759 38091 ft 436 kts 308°
2026-04-18 07:23 42.68818 10.04085 38094 ft 436 kts 308°
2026-04-18 07:24 42.72343 9.97457 38095 ft 437 kts 308°
2026-04-18 07:24 42.75883 9.90761 38097 ft 437 kts 307°
2026-04-18 07:25 42.79023 9.83680 38096 ft 440 kts 300°
2026-04-18 07:25 42.81486 9.76060 38098 ft 441 kts 293°
2026-04-18 07:26 42.83174 9.68083 38097 ft 444 kts 285°
2026-04-18 07:26 42.84357 9.59810 38096 ft 445 kts 284°
2026-04-18 07:27 42.85500 9.51558 38098 ft 445 kts 284°
2026-04-18 07:27 42.86636 9.43327 38096 ft 445 kts 284°
2026-04-18 07:28 42.87773 9.35047 38101 ft 444 kts 284°
2026-04-18 07:28 42.88900 9.26812 38099 ft 444 kts 283°
2026-04-18 07:29 42.90021 9.18566 38098 ft 444 kts 283°
2026-04-18 07:29 42.91133 9.10345 38100 ft 444 kts 283°
2026-04-18 07:30 42.92248 9.02058 38320 ft 443 kts 283°
2026-04-18 07:30 42.92800 8.97935 38170 ft 442 kts 283°
2026-04-18 07:30 42.93347 8.93838 38129 ft 442 kts 283°
2026-04-18 07:31 42.94437 8.85645 38110 ft 441 kts 283°
2026-04-18 07:31 42.94978 8.81559 37853 ft 441 kts 283°
2026-04-18 07:31 42.95524 8.77425 38027 ft 440 kts 283°
2026-04-18 07:32 42.96603 8.69224 38170 ft 441 kts 283°
2026-04-18 07:32 42.97672 8.61035 38106 ft 441 kts 283°
2026-04-18 07:33 42.98739 8.52827 38097 ft 440 kts 283°
2026-04-18 07:33 42.99799 8.44611 38103 ft 440 kts 283°
2026-04-18 07:34 43.00848 8.36444 38101 ft 440 kts 283°
2026-04-18 07:34 43.01902 8.28194 38095 ft 440 kts 282°
2026-04-18 07:35 43.02943 8.19993 38098 ft 440 kts 282°
2026-04-18 07:35 43.03978 8.11787 38100 ft 440 kts 282°
2026-04-18 07:36 43.05004 8.03598 38102 ft 439 kts 282°
2026-04-18 07:36 43.06024 7.95410 38097 ft 439 kts 282°
2026-04-18 07:37 43.07038 7.87226 38095 ft 438 kts 282°
2026-04-18 07:37 43.08049 7.79023 38094 ft 439 kts 282°
2026-04-18 07:38 43.09056 7.70790 38096 ft 440 kts 282°
2026-04-18 07:38 43.10051 7.62592 38097 ft 440 kts 282°
2026-04-18 07:39 43.11049 7.54329 38097 ft 440 kts 282°
2026-04-18 07:39 43.12038 7.46071 38097 ft 439 kts 282°
2026-04-18 07:40 43.13012 7.37886 38097 ft 438 kts 282°
2026-04-18 07:40 43.13979 7.29700 38096 ft 438 kts 281°
2026-04-18 07:41 43.14943 7.21496 38096 ft 439 kts 281°
2026-04-18 07:41 43.15905 7.13259 38098 ft 440 kts 281°
2026-04-18 07:42 43.16862 7.04990 38098 ft 440 kts 281°
2026-04-18 07:42 43.17813 6.96725 38100 ft 440 kts 281°
2026-04-18 07:43 43.18752 6.88518 38099 ft 439 kts 281°
2026-04-18 07:43 43.19693 6.80244 38099 ft 439 kts 281°
2026-04-18 07:44 43.20623 6.72001 38097 ft 439 kts 281°
2026-04-18 07:44 43.21532 6.63785 38101 ft 439 kts 279°
2026-04-18 07:45 43.22008 6.55501 38100 ft 440 kts 274°
2026-04-18 07:45 43.22135 6.47111 38105 ft 441 kts 273°
2026-04-18 07:46 43.22245 6.38746 38107 ft 441 kts 273°
2026-04-18 07:46 43.22352 6.30354 38112 ft 441 kts 272°
2026-04-18 07:47 43.22453 6.21977 38113 ft 440 kts 272°
2026-04-18 07:47 43.22549 6.13629 38117 ft 440 kts 272°
2026-04-18 07:48 43.22638 6.05277 38116 ft 439 kts 272°
2026-04-18 07:48 43.22721 5.96956 38110 ft 439 kts 272°
2026-04-18 07:49 43.22798 5.88577 38112 ft 439 kts 272°
2026-04-18 07:49 43.22870 5.80238 38110 ft 439 kts 272°
2026-04-18 07:50 43.22936 5.71910 38108 ft 439 kts 272°
2026-04-18 07:50 43.22996 5.63575 38112 ft 439 kts 272°
2026-04-18 07:51 43.23049 5.55216 38110 ft 439 kts 272°
2026-04-18 07:51 43.23095 5.46893 38108 ft 438 kts 272°
2026-04-18 07:52 43.23437 5.38598 38103 ft 436 kts 278°
2026-04-18 07:52 43.24406 5.30428 38106 ft 435 kts 283°
2026-04-18 07:53 43.25987 5.22495 38101 ft 435 kts 289°
2026-04-18 07:53 43.28003 5.14670 38103 ft 435 kts 290°
2026-04-18 07:54 43.30041 5.06870 38104 ft 435 kts 290°
2026-04-18 07:54 43.32062 4.99104 38105 ft 435 kts 290°
2026-04-18 07:55 43.34076 4.91325 38103 ft 435 kts 290°
2026-04-18 07:55 43.36094 4.83496 38106 ft 435 kts 290°
2026-04-18 07:56 43.38105 4.75674 38109 ft 434 kts 290°
2026-04-18 07:56 43.40095 4.67903 38111 ft 434 kts 290°
2026-04-18 07:57 43.42087 4.60107 38110 ft 434 kts 289°
2026-04-18 07:57 43.44078 4.52281 38115 ft 434 kts 289°
2026-04-18 07:58 43.47054 4.40538 38118 ft 434 kts 289°
2026-04-18 07:59 43.49037 4.32680 38120 ft 434 kts 289°
2026-04-18 07:59 43.50990 4.24912 38125 ft 433 kts 289°
2026-04-18 08:00 43.52957 4.17066 38131 ft 434 kts 289°
2026-04-18 08:00 43.54917 4.09223 38136 ft 433 kts 289°
2026-04-18 08:01 43.56871 4.01372 38140 ft 434 kts 288°
2026-04-18 08:01 43.58578 3.93478 38143 ft 434 kts 284°
2026-04-18 08:02 43.60063 3.85444 38146 ft 433 kts 284°
2026-04-18 08:02 43.61534 3.77409 38150 ft 433 kts 284°
2026-04-18 08:03 43.63002 3.69378 38152 ft 432 kts 284°
2026-04-18 08:03 43.64465 3.61335 38156 ft 432 kts 284°
2026-04-18 08:04 43.65919 3.53313 38159 ft 432 kts 284°
2026-04-18 08:04 43.67366 3.45295 38164 ft 432 kts 284°
2026-04-18 08:05 43.68799 3.37322 38168 ft 431 kts 284°
2026-04-18 08:05 43.70239 3.29274 38174 ft 432 kts 283°
2026-04-18 08:06 43.71672 3.21230 38177 ft 432 kts 283°
2026-04-18 08:06 43.73093 3.13215 38182 ft 431 kts 283°
2026-04-18 08:07 43.74512 3.05182 38189 ft 431 kts 283°
2026-04-18 08:07 43.75922 2.97160 38193 ft 431 kts 283°
2026-04-18 08:08 43.77325 2.89138 38194 ft 431 kts 283°
2026-04-18 08:08 43.78727 2.81096 38196 ft 431 kts 283°
2026-04-18 08:09 43.80120 2.73061 38198 ft 431 kts 283°
2026-04-18 08:09 43.81504 2.65045 38192 ft 424 kts 283°
2026-04-18 08:09 43.82176 2.61144 38193 ft 409 kts 283°
2026-04-18 08:10 43.82827 2.57361 38198 ft 404 kts 283°
2026-04-18 08:10 43.84113 2.49839 38020 ft 404 kts 283°
2026-04-18 08:10 43.84753 2.46085 37660 ft 401 kts 283°
2026-04-18 08:11 43.85395 2.42316 37196 ft 398 kts 283°
2026-04-18 08:11 43.86023 2.38618 36664 ft 397 kts 283°
2026-04-18 08:11 43.86647 2.34937 36098 ft 396 kts 282°
2026-04-18 08:11 43.87273 2.31233 35520 ft 395 kts 282°
2026-04-18 08:12 43.87896 2.27539 34953 ft 395 kts 282°
2026-04-18 08:12 43.88519 2.23845 34394 ft 394 kts 282°
2026-04-18 08:12 43.89131 2.20204 33853 ft 395 kts 282°
2026-04-18 08:12 43.89754 2.16483 33238 ft 395 kts 282°
2026-04-18 08:13 43.90371 2.12799 32639 ft 395 kts 282°
2026-04-18 08:13 43.90985 2.09125 32236 ft 390 kts 282°
2026-04-18 08:13 43.91593 2.05477 31825 ft 386 kts 282°
2026-04-18 08:13 43.92184 2.01924 31411 ft 382 kts 282°
2026-04-18 08:14 43.92778 1.98344 30984 ft 379 kts 282°
2026-04-18 08:14 43.93359 1.94835 30577 ft 375 kts 282°
2026-04-18 08:14 43.93937 1.91328 30155 ft 372 kts 282°
2026-04-18 08:14 43.94511 1.87848 29728 ft 369 kts 281°
2026-04-18 08:15 43.94941 1.84383 29307 ft 366 kts 276°
2026-04-18 08:15 43.95122 1.80849 28880 ft 363 kts 271°
2026-04-18 08:15 43.95054 1.77378 28461 ft 360 kts 266°
2026-04-18 08:15 43.94846 1.73948 28034 ft 358 kts 265°
2026-04-18 08:16 43.94620 1.70538 27605 ft 356 kts 265°
2026-04-18 08:16 43.94393 1.67154 27184 ft 353 kts 265°
2026-04-18 08:16 43.94167 1.63791 26759 ft 351 kts 265°
2026-04-18 08:16 43.93942 1.60434 26336 ft 349 kts 265°
2026-04-18 08:17 43.93717 1.57099 25927 ft 347 kts 265°
2026-04-18 08:17 43.93494 1.53801 25512 ft 345 kts 265°
2026-04-18 08:17 43.93271 1.50528 25094 ft 343 kts 265°
2026-04-18 08:17 43.93047 1.47234 24670 ft 341 kts 265°
2026-04-18 08:18 43.92824 1.43987 24270 ft 338 kts 265°
2026-04-18 08:18 43.92604 1.40788 23855 ft 336 kts 265°
2026-04-18 08:18 43.92382 1.37579 23434 ft 335 kts 265°
2026-04-18 08:18 43.92159 1.34355 23007 ft 333 kts 265°
2026-04-18 08:19 43.91938 1.31164 22575 ft 332 kts 265°
2026-04-18 08:19 43.91717 1.27983 22150 ft 330 kts 265°
2026-04-18 08:19 43.91498 1.24854 21743 ft 329 kts 265°
2026-04-18 08:19 43.91277 1.21698 21325 ft 327 kts 264°
2026-04-18 08:20 43.91058 1.18591 20914 ft 326 kts 264°
2026-04-18 08:20 43.90836 1.15477 20497 ft 325 kts 264°
2026-04-18 08:20 43.90613 1.12362 20069 ft 323 kts 265°
2026-04-18 08:20 43.90395 1.09310 19649 ft 323 kts 265°
2026-04-18 08:21 43.90174 1.06229 19234 ft 322 kts 265°
2026-04-18 08:21 43.89952 1.03138 18817 ft 321 kts 265°
2026-04-18 08:21 43.89733 1.00101 18403 ft 319 kts 265°
2026-04-18 08:21 43.89510 0.97035 17990 ft 318 kts 265°
2026-04-18 08:22 43.89288 0.93991 17586 ft 317 kts 264°
2026-04-18 08:22 43.89070 0.91011 17195 ft 315 kts 263°
2026-04-18 08:22 43.88517 0.88086 16767 ft 315 kts 244°
2026-04-18 08:22 43.87197 0.85694 16355 ft 316 kts 222°
2026-04-18 08:23 43.85432 0.83870 15959 ft 316 kts 217°
2026-04-18 08:23 43.83669 0.82135 15543 ft 315 kts 217°
2026-04-18 08:23 43.81884 0.80375 15130 ft 314 kts 217°
2026-04-18 08:23 43.80112 0.78622 14748 ft 313 kts 217°
2026-04-18 08:24 43.78349 0.76873 14338 ft 312 kts 217°
2026-04-18 08:24 43.76586 0.75120 13944 ft 311 kts 217°
2026-04-18 08:24 43.74834 0.73378 13528 ft 310 kts 217°
2026-04-18 08:24 43.73090 0.71646 13137 ft 308 kts 217°
2026-04-18 08:25 43.71359 0.69926 12767 ft 307 kts 217°
2026-04-18 08:25 43.69639 0.68218 12369 ft 306 kts 217°
2026-04-18 08:25 43.67902 0.66494 11973 ft 305 kts 217°
2026-04-18 08:25 43.66193 0.64800 11570 ft 305 kts 217°
2026-04-18 08:26 43.64467 0.63090 11183 ft 303 kts 217°
2026-04-18 08:26 43.62766 0.61407 10802 ft 302 kts 217°
2026-04-18 08:26 43.61066 0.59726 10400 ft 301 kts 217°
2026-04-18 08:26 43.59388 0.58069 10180 ft 293 kts 217°
2026-04-18 08:27 43.57749 0.56451 9942 ft 286 kts 217°
2026-04-18 08:27 43.56153 0.54875 9563 ft 285 kts 217°
2026-04-18 08:27 43.54538 0.53280 9209 ft 283 kts 217°
2026-04-18 08:27 43.52939 0.51703 8854 ft 282 kts 217°
2026-04-18 08:28 43.51362 0.50148 8497 ft 280 kts 217°
2026-04-18 08:28 43.49784 0.48592 8149 ft 278 kts 217°
2026-04-18 08:28 43.48210 0.47044 7832 ft 276 kts 217°
2026-04-18 08:28 43.46654 0.45515 7479 ft 274 kts 217°
2026-04-18 08:29 43.45121 0.44008 7232 ft 268 kts 216°
2026-04-18 08:29 43.43602 0.42516 7199 ft 273 kts 216°
2026-04-18 08:29 43.42055 0.40996 7184 ft 279 kts 217°
2026-04-18 08:29 43.40670 0.39138 7147 ft 280 kts 239°
2026-04-18 08:30 43.39859 0.36708 6810 ft 279 kts 249°
2026-04-18 08:30 43.39144 0.34231 6457 ft 277 kts 248°
2026-04-18 08:30 43.38437 0.31810 6138 ft 276 kts 248°
2026-04-18 08:30 43.37710 0.29368 5814 ft 274 kts 248°
2026-04-18 08:31 43.36986 0.26970 5580 ft 268 kts 248°
2026-04-18 08:31 43.36274 0.24630 5316 ft 262 kts 248°
2026-04-18 08:31 43.35583 0.22363 5023 ft 258 kts 248°
2026-04-18 08:31 43.34896 0.20120 4776 ft 254 kts 248°
2026-04-18 08:32 43.34209 0.17874 4420 ft 255 kts 247°
2026-04-18 08:32 43.33522 0.15633 4070 ft 254 kts 247°
2026-04-18 08:32 43.32960 0.13377 3713 ft 254 kts 257°
2026-04-18 08:32 43.32609 0.11069 3370 ft 238 kts 260°
2026-04-18 08:33 43.32317 0.08887 3067 ft 226 kts 260°
2026-04-18 08:33 43.31757 0.07008 2950 ft 208 kts 228°
2026-04-18 08:33 43.30631 0.05856 3044 ft 196 kts 207°
2026-04-18 08:33 43.29386 0.05132 3009 ft 193 kts 200°
2026-04-18 08:34 43.28135 0.04534 2979 ft 185 kts 199°
2026-04-18 08:34 43.26975 0.03977 2805 ft 169 kts 200°
2026-04-18 08:34 43.25915 0.03449 2582 ft 156 kts 201°
2026-04-18 08:34 43.24942 0.02954 2361 ft 143 kts 201°
2026-04-18 08:35 43.24025 0.02487 2192 ft 139 kts 202°
2026-04-18 08:35 43.23134 0.02036 2024 ft 137 kts 202°
2026-04-18 08:35 43.22236 0.01580 1850 ft 136 kts 202°
2026-04-18 08:35 43.21347 0.01122 1680 ft 135 kts 202°
2026-04-18 08:36 43.20468 0.00680 1473 ft 134 kts 201°
2026-04-18 08:36 43.19882 0.00390 1354 ft 135 kts 202°
2026-04-18 08:36 43.18702 -0.00207 1203 ft 132 kts 202°
2026-04-18 08:36 43.18199 -0.00465 1210 ft 74 kts 202°
2026-04-18 08:37 43.18029 -0.00340 1216 ft 20 kts 79°
2026-04-18 08:37 43.18092 -0.00159 1212 ft 22 kts 52°
2026-04-18 08:37 43.18226 -0.00032 1204 ft 25 kts 29°
2026-04-18 08:37 43.18378 0.00085 1200 ft 19 kts 29°
2026-04-18 08:38 43.18457 0.00140 1199 ft 6 kts 44°
2026-04-18 08:38 43.18497 0.00189 1198 ft 8 kts 45°
2026-04-18 08:38 43.18502 0.00197 1198 ft 0 kts 45°